Regional Weather Roundup
Issued by NWS

Home | Current Version | Previous Version | Graphics & Text | Print | Product List | Glossary On
Versions: 1 2 3 4 5 6 7 8 9 10 11 12 13 14 15 16 17 18 19 20 21 22 23 24 25 26 27 28 29 30 31 32 33 34 35 36 37 38 39 40 41 42 43 44 45 46 47 48 49 50
000
ASUS43 KLOT 020600
RWRIL

ILLINOIS REGIONAL WEATHER ROUNDUP
NATIONAL WEATHER SERVICE CHICAGO/ROMEOVILLE IL
100 AM CDT THU OCT 02 2014

NOTE: "FAIR" INDICATES FEW OR NO CLOUDS BELOW 12,000 FEET WITH NO
SIGNIFICANT WEATHER AND/OR OBSTRUCTIONS TO VISIBILITY.

* THESE STATIONS ARE NOT UNDER NWS QUALITY CONTROL. THEY ALSO MAY NOT
  REPORT WEATHER SUCH AS PRECIPITATION OR FOG.

ILZ001-002-007-009-015-016-024-020700-
NORTHWEST ILLINOIS

CITY           SKY/WX    TMP DP  RH WIND       PRES   REMARKS
MOLINE         CLOUDY    62  59  90 E5        29.80F FOG
6HR MIN TEMP:  60; 6HR MAX TEMP:  69;

$$

ILZ003-004-008-010-011-017-018-020700-
NORTH CENTRAL ILLINOIS

CITY           SKY/WX    TMP DP  RH WIND       PRES   REMARKS
ROCKFORD       CLOUDY    64  55  72 SE6       29.88F
6HR MIN TEMP:  63; 6HR MAX TEMP:  68;

FREEPORT*      CLOUDY    61  56  83 CALM      29.87F
$$

ILZ005-006-012>014-019>023-020700-
NORTHEAST ILLINOIS

CITY           SKY/WX    TMP DP  RH WIND       PRES   REMARKS
CHICAGO-OHARE  CLOUDY    66  53  63 S8        29.89R
6HR MIN TEMP:  65; 6HR MAX TEMP:  67;

CHICAGO-MIDWAY NOT AVBL
AURORA         LGT RAIN  65  56  72 E7        29.88F
6HR MIN TEMP:  65; 6HR MAX TEMP:  69; 6HR PCP: TRACE;

LANSING*       LGT RAIN  64  53  67 SE8       29.90S
WAUKEGAN       NOT AVBL
DUPAGE AIRPORT CLOUDY    65  55  70 SE5       29.88S
6HR MIN TEMP:  65; 6HR MAX TEMP:  67; 6HR PCP: TRACE;

WHEELING       CLOUDY    65  54  67 S5        29.91R
6HR MIN TEMP:  63; 6HR MAX TEMP:  66;

NORTHERLY ISL    N/A     65  55  70 SE9         N/A
$$

LMZ740>746-020700-
SOUTHERN LAKE MICHIGAN

STATION/POSITION SKY/WX   TEMP    WIND        PRES    VSBY  WAVE
                          AIR SEA DIR/SP/G                  HT/PER
                          (F)     (DEG/KT/KT) (MB)    (MI)  (FT/S)
SOUTHERN BUOY              63 62  140/ 17/ 21 1012.9F         2/ 4
WAUKEGAN HARBOR            62     170/  9/ 10   N/A
HARRISON CRIB              64     150/ 11/ 14   N/A
BURNHAM HARBOR             65     160/  7/ 10   N/A
CALUMET HARBOR             66     150/  9/ 11 1011.2F
MICHIGAN CITY              64     110/ 13/ 16   N/A
MICHIGAN CITY 6N           65 64  150/ 16/ 19   N/A           2/ 2
ST. JOSEPH                 63 63  120/ 16/ 21   N/A           2/ 2
$$

ILZ025>027-034>036-040-047-049-050-058-095>099-020700-
WEST-CENTRAL ILLINOIS

CITY           SKY/WX    TMP DP  RH WIND       PRES   REMARKS
QUINCY         LGT RAIN  67  65  93 SW7       29.81R
$$

ILZ028>032-037-038-041>044-048-051>054-059>061-020700-
CENTRAL ILLINOIS

CITY           SKY/WX    TMP DP  RH WIND       PRES   REMARKS
DECATUR        LGT RAIN  67  64  90 W7        29.90F
PEORIA         CLOUDY    70  64  81 S13G23    29.84F
6HR MIN TEMP:  69; 6HR MAX TEMP:  72; 6HR PCP:  0.12;

SPRINGFIELD    RAIN      68  65  90 S12       29.87F
6HR MIN TEMP:  66; 6HR MAX TEMP:  70; 6HR PCP:  0.70;

TAYLORVILLE    NOT AVBL
$$

ILZ033-039-045-046-055>057-062-063-020700-
EAST-CENTRAL ILLINOIS

CITY           SKY/WX    TMP DP  RH WIND       PRES   REMARKS
MATTOON        CLOUDY    69  58  67 NW7       29.90S
$$

ILZ079-100>102-020700-
SOUTHWEST ILLINOIS

CITY           SKY/WX    TMP DP  RH WIND       PRES   REMARKS
BELLEVILLE     CLOUDY    70  70  99 NE3       29.85F
CAHOKIA*       CLOUDY    72  70  93 E3        29.84F FOG
SPARTA*        CLOUDY    71  64  77 SE5       29.88S
$$

ILZ064>066-069>071-074>076-080>082-084>086-088>090-092>094-020700-
SOUTH-CENTRAL ILLINOIS

CITY           SKY/WX    TMP DP  RH WIND       PRES   REMARKS
CARBONDALE     MOCLDY    71  61  70 S6        29.88F
6HR MIN TEMP:  69; 6HR MAX TEMP:  77;

$$

ILZ067-068-072-073-078-083-087-091-020700-
SOUTHEAST ILLINOIS

CITY           SKY/WX    TMP DP  RH WIND       PRES   REMARKS
LAWRENCEVILLE  PTCLDY    65  58  78 S8        29.92F
ROBINSON*      MOCLDY    63  59  88 SE3       29.92F
$$

ABBREVIATIONS USED IN REMARKS
   TC - TEMPERATURE IN CELSIUS
  WCI - WIND CHILL INDEX
   HX - HEAT INDEX
  VSB - VISIBILITY
$$



USA.gov is the U.S. government's official web portal to all federal, state and local government web resources and services.